#timestamp,LO_Frequency,Hit 
1506067215.7,286047000.9,N
1506067235.6,286047001.1,N
1506067255.4,286046998.5,N
1506067275.2,286046998.6,N
1506067295.1,286046996.5,N
1506067296.0,286046996.5,N
1506067315.8,286046998.7,N
1506067335.6,286046999.1,N
1506067355.5,286046997.5,N
1506067375.3,286046999.5,N
1506067395.1,286046997.3,N
1506067415.8,286046997.3,N
1506067435.7,286046996.5,N
1506067455.5,286046999.5,N
1506067475.3,286046999.6,N
1506067495.2,286046996.6,N
1506067515.9,286046997.8,N
1506067535.7,286046996.2,N
1506067555.6,286046999.4,N
1506067575.4,286047000.1,N
1506067595.2,286047005.9,P
1506067615.1,286047004.5,N
1506067616.0,286047004.5,N
1506067635.8,286047004.7,N
1506067655.6,286047002.9,N
1506067675.5,286047003.8,N
1506067695.3,286047001.5,N
1506067715.1,286047004.0,N
1506067735.9,286047003.1,N
1506067755.7,286047004.0,N
1506067775.5,286047002.8,N
1506067795.4,286047000.4,N
1506067815.2,286046997.8,N
1506067835.0,286046995.5,N
1506067835.9,286046995.5,N
1506067855.7,286046997.7,N
1506067875.6,286046998.4,N
1506067895.4,286046997.9,N
1506067915.2,286046998.6,N
1506067935.1,286047000.6,N
1506067936.0,286047000.6,N
1506067955.8,286047002.4,N
1506067975.6,286047002.0,N
1506067995.5,286047003.7,N
1506068015.3,286047002.3,N
1506068035.1,286047002.2,N
1506068055.9,286047000.8,N
1506068075.7,286046999.0,N
1506068095.5,286046996.6,N
1506068115.4,286046999.6,N
1506068135.2,286047001.9,N
1506068155.0,286047001.6,N
1506068155.9,286047001.6,N
1506068175.7,286047000.9,N
1506068195.6,286046999.5,N
1506068215.4,286047002.4,N
1506068235.2,286047002.5,N
1506068255.1,286046999.9,N
1506068256.0,286046999.9,N
1506068275.8,286047000.9,N
1506068295.6,286047002.8,N
1506068315.5,286047002.8,N
1506068335.3,286047000.0,N
1506068355.1,286047000.0,N
1506068375.9,286047000.9,N
1506068395.7,286046996.2,N
1506068415.5,286046994.4,P
1506068435.4,286046994.6,N
1506068455.2,286046993.4,N
1506068475.0,286046999.1,N
1506068475.9,286046999.1,N
1506068495.8,286046998.7,N
1506068515.6,286046995.0,N
1506068535.4,286046998.8,N
1506068555.3,286046998.3,N
1506068575.1,286046998.9,N
1506068576.0,286046998.9,N
1506068595.8,286046997.2,N
1506068615.7,286046997.7,N
1506068635.5,286046996.9,N
1506068655.3,286046999.3,N
1506068675.1,286047002.3,N
1506068695.9,286047000.0,N
1506068715.7,286046999.3,N
1506068735.5,286047000.3,N
1506068755.4,286046998.5,N
1506068775.2,286046997.9,N
1506068795.0,286046993.6,P
1506068796.0,286046993.6,N
1506068815.8,286046995.8,N
1506068835.6,286046995.9,N
1506068855.4,286046996.5,N
1506068875.3,286046996.7,N
1506068895.1,286046998.0,N
1506068915.8,286046997.9,N
1506068935.7,286046996.3,N
1506068955.5,286046993.6,P
1506068975.3,286046999.4,N
1506068995.2,286046995.1,N
1506069015.9,286046995.6,N
1506069035.7,286046995.4,N
1506069055.6,286046996.0,N
1506069075.4,286046995.4,N
1506069095.2,286046999.4,N
1506069115.1,286046996.9,N
1506069116.0,286046996.9,N
1506069135.8,286046999.4,N
1506069155.6,286046995.6,N
1506069175.5,286046995.5,N
1506069195.3,286046994.3,P
1506069215.1,286046997.3,N
1506069235.9,286046998.5,N
1506069255.7,286046999.5,N
1506069275.5,286046994.7,N
1506069295.3,286046995.9,N
1506069315.2,286046995.4,N
1506069335.0,286046996.8,N
1506069335.9,286046996.8,N
1506069355.7,286046996.5,N
1506069375.6,286046999.4,N
1506069395.4,286046997.0,N
1506069415.3,286046993.4,P
1506069435.1,286046999.5,N
1506069436.0,286046999.5,N
1506069455.8,286046998.9,N
1506069475.6,286046998.1,N
1506069495.5,286046996.7,N
1506069515.3,286046998.8,N
1506069535.1,286047001.0,N
1506069555.9,286047002.6,N
1506069575.7,286047002.7,N
1506069595.5,286046999.7,N
1506069615.4,286046996.8,N
1506069635.2,286046996.6,N
1506069655.0,286047000.2,N
1506069655.9,286047000.2,N
1506069675.8,286047002.1,N
1506069695.6,286047002.3,N
1506069715.4,286046999.7,N
1506069735.3,286047000.5,N
1506069755.1,286047000.6,N
1506069756.0,286047000.6,N
1506069775.8,286046999.3,N
1506069795.7,286046998.4,N
1506069815.5,286046999.4,N
1506069835.3,286046997.7,N
1506069855.1,286046998.4,N
1506069875.9,286046997.3,N
1506069895.7,286046995.8,N
1506069915.5,286046997.8,N
1506069935.4,286047001.2,N
1506069955.2,286047000.4,N
1506069975.0,286046999.7,N
1506069975.9,286046999.7,N
1506069995.8,286046998.2,N
1506070015.6,286047000.4,N
1506070035.4,286046999.8,N
1506070055.3,286047003.3,N
1506070075.1,286047003.6,N
1506070076.0,286047003.6,N
1506070095.8,286047002.5,N
1506070115.7,286047000.5,N
1506070135.5,286046998.2,N
1506070155.3,286047001.5,N
1506070175.1,286047002.6,N
1506070195.9,286046999.0,N
1506070215.7,286046998.4,N
1506070235.5,286046997.6,N
1506070255.4,286046999.2,N
1506070275.2,286046997.3,N
1506070295.0,286046995.7,N
1506070295.9,286046995.7,N
1506070315.8,286046999.2,N
1506070335.6,286046995.4,N
1506070355.4,286046999.3,N
1506070375.3,286046997.4,N
1506070395.1,286046995.7,N
1506070415.8,286046994.3,N
1506070435.7,286046995.6,N
1506070455.5,286046995.0,N
1506070475.3,286046995.6,N
1506070495.2,286046997.3,N
1506070515.9,286046996.9,N
1506070535.7,286046999.9,N
1506070555.5,286046996.6,N
1506070575.4,286046997.2,N
1506070595.2,286046997.3,N
1506070615.0,286046999.2,N
1506070615.9,286046999.2,N
1506070635.8,286046997.7,N
1506070655.6,286046993.4,P
1506070675.5,286046995.1,N
1506070695.3,286046996.7,N
1506070715.1,286046996.8,N
1506070735.9,286046993.5,P
1506070755.7,286046995.0,P
1506070775.5,286046995.9,P
1506070795.4,286046997.8,N
